sat.trackr.live / text

‹ back to catalog

STARLINK-30810

NORAD 58178 · 2023-167D

PAYLOAD ACTIVE UNKNOWN

§ Identity

Operator
Country
US
Launch date
2023-10-30
Launch site
AFETR
Launch vehicle
Mass (kg)
RCS (m²)

Purposes: comms

External: N2YO · Heavens-Above · Gunter

§ Orbital elements

Epoch: 2026-05-25T03:38:06.582912Z

Period
94.27 min
Inclination
43.0011°
Eccentricity
0.0000880
Mean motion
15.27596699 rev/d
Perigee alt
482.4 km
Apogee alt
483.6 km
Semi-major
6,861.1 km
B*
2.7267e-4
RAAN
71.1885°
Arg perigee
291.3625°
Mean anomaly
68.7133°
Rev number
14,268

§ Raw data

STARLINK-308101 58178U 23167D   26145.15146508  .00007252  00000+0  27267-3 0  99982 58178  43.0011  71.1885 0000880 291.3625  68.7133 15.27596699142682

JSON: /api/v1/satellites/58178 · /tle

For live sub-satellite position, see the globe view (requires WebGL).

§ Visibility from observer

Set your observer location to see the next 7 days of passes ≥ 10°. The values pass through the URL so the page stays shareable.

No JS? Fill the form by hand. The geolocation button needs JavaScript.